TimeMST,TemperatureF,Dew PointF,Humidity,Sea Level PressureIn,VisibilityMPH,Wind Direction,Wind SpeedMPH,Gust SpeedMPH,PrecipitationIn,Events,Conditions,WindDirDegrees,DateUTC
12:53 AM,23.0,14.0,68,30.04,10.0,West,13.8,-,N/A,,Clear,280,2013-02-13 07:53:00
1:53 AM,25.0,12.9,60,30.01,10.0,West,10.4,-,N/A,,Clear,280,2013-02-13 08:53:00
2:53 AM,26.1,14.0,60,29.99,10.0,West,13.8,-,N/A,,Clear,280,2013-02-13 09:53:00
3:53 AM,24.1,15.1,69,29.98,10.0,WNW,13.8,-,N/A,,Clear,300,2013-02-13 10:53:00
5:53 AM,21.9,12.9,68,30.01,10.0,WNW,16.1,-,N/A,,Clear,290,2013-02-13 12:53:00
6:53 AM,21.9,12.9,68,30.03,10.0,WNW,12.7,-,N/A,,Clear,290,2013-02-13 13:53:00
7:53 AM,27.0,16.0,63,30.02,10.0,WNW,15.0,-,N/A,,Clear,300,2013-02-13 14:53:00
8:53 AM,36.0,19.0,50,29.98,10.0,WNW,23.0,28.8,N/A,,Clear,300,2013-02-13 15:53:00
9:53 AM,41.0,19.9,43,29.98,10.0,WNW,28.8,41.4,N/A,,Clear,300,2013-02-13 16:53:00
10:53 AM,44.1,21.0,40,29.97,10.0,WNW,28.8,40.3,N/A,,Clear,300,2013-02-13 17:53:00
11:53 AM,44.1,19.9,38,29.96,10.0,NW,31.1,39.1,N/A,,Clear,310,2013-02-13 18:53:00
12:53 PM,46.9,21.0,36,29.92,10.0,NW,29.9,38.0,N/A,,Clear,310,2013-02-13 19:53:00
1:53 PM,48.0,19.9,33,29.89,10.0,NW,24.2,31.1,N/A,,Clear,310,2013-02-13 20:53:00
2:53 PM,48.0,21.0,34,29.90,10.0,WNW,26.5,-,N/A,,Clear,300,2013-02-13 21:53:00
3:53 PM,46.0,19.9,35,29.92,10.0,WNW,25.3,32.2,N/A,,Clear,300,2013-02-13 22:53:00
4:53 PM,42.1,21.0,43,29.94,10.0,WNW,20.7,28.8,N/A,,Clear,300,2013-02-13 23:53:00
5:53 PM,37.0,21.0,52,29.98,10.0,WNW,15.0,-,N/A,,Clear,300,2013-02-14 00:53:00
6:53 PM,37.0,21.0,52,29.99,10.0,NW,21.9,-,N/A,,Clear,310,2013-02-14 01:53:00
7:53 PM,35.1,21.9,59,30.02,10.0,NNW,16.1,24.2,N/A,,Clear,330,2013-02-14 02:53:00
8:53 PM,33.1,27.0,78,30.01,10.0,NW,11.5,-,N/A,,Partly Cloudy,320,2013-02-14 03:53:00
9:53 PM,32.0,27.0,82,30.01,10.0,WNW,16.1,-,N/A,,Scattered Clouds,300,2013-02-14 04:53:00
10:53 PM,32.0,25.0,75,30.03,10.0,West,12.7,-,N/A,,Mostly Cloudy,270,2013-02-14 05:53:00
11:53 PM,33.1,25.0,72,30.02,10.0,NW,16.1,-,N/A,,Overcast,320,2013-02-14 06:53:00